SR-0 DemoSAT (60455 NORAD) Tracking and Keplerian Element Data

This shows tracking and keplerian element data for the satellite.

Feedback or suggestion? Click here.




ElementValue
Catalog60455
NameSR-0 DemoSAT
Epoch Orbit850
Epoch Day286.44153469
Epoch Year2024
RAAN298.7696
Inclination37.3745
Eccentricity0.0023531
Argument of Perigee133.0874
Mean Anonmoly227.1869
Mean Motion15.61314013
Decay Rate0.00420904
L11 60455U 24147B 24286.44153469 .00420904 00000-0 45001-2 0 9997
L22 60455 37.3745 298.7696 0023531 133.0874 227.1869 15.61314013 8501



Live tracking and technical data element details for SR-0 DemoSAT (NORAD 60455). SR-0 DemoSAT can be tracked NOW for your location showing map with azimuth and elevation plus other details from your city location.







IsCatalogInMostPopularTable: catalog: 60455, numindb: 6
Update: records affected: 1



GetName: 60455 SR-0 DemoSAT

Hit Count: updated at: Tue, 03 Dec 2024 03:31:47 GMT